Regional Weather Roundup
Issued by NWS Jackson, KY

Home | Current Version | Previous Version | Graphics & Text | Print | Product List | Glossary On
Versions: 1 2 3 4 5 6 7 8 9 10 11 12 13 14 15 16 17 18 19 20 21 22 23 24 25 26 27 28 29 30 31 32 33 34 35 36 37 38 39 40 41 42 43 44 45 46 47 48 49 50
000
ASUS43 KJKL 171419
RWRJKL

EAST KENTUCKY HOURLY WEATHER ROUNDUP
NATIONAL WEATHER SERVICE JACKSON KY
1000 AM EDT THU APR 17 2014

NOTE: "FAIR" INDICATES FEW OR NO CLOUDS BELOW 12,000 FEET WITH
NO SIGNIFICANT WEATHER AND/OR OBSTRUCTIONS TO VISIBILITY.

* THESE REPORTS ARE NOT UNDER NWS QUALITY CONTROL AND MAY NOT
  REPORT WEATHER SUCH AS PRECIPITATION AND FOG.

KYZ079-080-083-085-087-088-110-112-115-119-120-171500
...EASTERN KENTUCKY...

CITY           SKY/WX    TMP DP  RH WIND       PRES   REMARKS
JACKSON        MOSUNNY   50  26  39 VRB3      30.41R
LONDON         MOSUNNY   51  27  39 SE9       30.40S
SOMERSET*      SUNNY     50  28  43 SE7       30.41S
MONTICELLO*    SUNNY     54  31  41 SE8       30.40R
MIDDLESBORO*   PTSUNNY   49  26  41 CALM      30.43R
HARLAN APT*    MOSUNNY   50  21  32 E5        30.41S
BLACK MTN*       N/A     43  19  39 S7          N/A
PIKEVILLE APT* SUNNY     50  23  34 SE9       30.42R
BIG SANDY*     MOSUNNY   51  25  36 S9        30.42S
ASHLAND*       SUNNY     54  27  35 S7        30.41R
MOREHEAD APT*  SUNNY     52  27  37 SE8       30.42R
$$

KYZ035-036-041-042-044-050-067-078-099-171500
...CENTRAL KENTUCKY...

CITY           SKY/WX    TMP DP  RH WIND       PRES   REMARKS
MT STERLING*   MOSUNNY   52  30  43 SW10G17   30.40R
FLEMING/MASON* SUNNY     52  30  43 S10       30.40R
DANVILLE*      SUNNY     50  32  50 S14G20    30.39R
LEXINGTON      SUNNY     53  30  41 S14       30.37R
FRANKFORT      MOSUNNY   52  32  46 S13       30.36R
$$

KYZ091>093-OHZ055-061-077-WVZ005-015-034-035-042-171500
...SOUTHERN OHIO/WEST VIRGINIA...

CITY           SKY/WX    TMP DP  RH WIND       PRES   REMARKS
COVINGTON      MOSUNNY   53  31  42 S17G24    30.35R
COLUMBUS       MOSUNNY   52  26  36 S10       30.38R
DAYTON         MOSUNNY   51  29  42 S13       30.34R
WILMINGTON     MOSUNNY   52  30  43 SW14      30.35S
HUNTINGTON     SUNNY     51  24  34 S12       30.42R
CHARLESTON     MOSUNNY   51  20  29 S9        30.44R
PINEVILLE*     SUNNY     49  26  40 MISG      30.51S
BECKLEY        SUNNY     42  18  37 SE9G18    30.47R
BLUEFIELD      SUNNY     43  19  38 VRB7      30.46R
$$

VAZ002-007-008-TNZ017-027-036-066-071-171500
...SOUTHWEST VIRGINIA/EAST TENNESSEE...

CITY           SKY/WX    TMP DP  RH WIND       PRES   REMARKS
WISE*          MOSUNNY   45  19  36 S6        30.42S
ABINGDON*      MOSUNNY   46  23  40 E13       30.44R
BRISTOL        PTSUNNY   47  22  37 NE6       30.44S
KNOXVILLE      PTSUNNY   45  34  65 CALM      30.41R
OAK RIDGE      MOSUNNY   50  30  46 VRB3      30.42R
CROSSVILLE     SUNNY     50  24  36 S9        30.38R
NASHVILLE      MOSUNNY   55  31  39 S16G23    30.37R
$$

...KEY TO REMARKS...
VSB - VISIBILITY IN MILES
WCI - WIND CHILL INDEX
HX  - HEAT INDEX

$$



USA.gov is the U.S. government's official web portal to all federal, state and local government web resources and services.